Home   Weather   Alajuela   Past weeks

Flag for Costa Rica Past Weather in Alajuela, Costa Rica — Yesterday and Last 2 Weeks

Now
66 °F

Clear.


Feels Like: 66 °F
Forecast: 69 / 87 °F
Wind: 8 mph from East

Location: Juan Santamaria

Current Time: Apr 24, 2017 at 3:43:55 am

Latest Report: Apr 24, 2017 at 3:00 am


Visibility: 10 mi

Pressure: 29.93 "Hg (26.77 "Hg at 955m altitude)

Humidity: 83%

Dew Point: 61 °F

Location of AlajuelaLocation

Past Weather in Alajuela — Graph

°F

Alajuela Temperature Yesterday

Maximum temperature yesterday: 86 °F (at 1:00 pm)
Minimum temperature yesterday: 68 °F (at 5:17 am)
Average temperature yesterday: 75 °F

High & Low Weather Summary for the Past Weeks

 TemperatureHumidityPressure
High86 °F (Apr 10, 1:00 pm)100% (Apr 18, 7:00 pm)30.06 "Hg (Apr 18, 7:00 pm)
Low64 °F (Apr 21, 4:00 am)32% (Apr 10, 10:00 am)29.88 "Hg (Apr 13, 3:00 pm)
Average75 °F69%29.97 "Hg
* Reported Apr 9 2:00 am — Apr 24 2:00 am, Alajuela, Weather by CustomWeather, © 2017

Note: Actual official high and low records may vary slightly from our data, if they occured in-between our weather recording intervals... More about our weather records

Advertising

Alajuela Weather History for the Previous 24 Hours

Scroll right to see more
 ConditionsComfort  
Time TempWeatherWind HumidityBarometerVisibility
2:00 am
Mon, Apr 24
68 °FClear.7 mph83%29.93 "Hg10 mi
1:00 am68 °FClear.7 mph83%29.95 "Hg10 mi
12:00 am68 °FClear.7 mph88%29.98 "Hg10 mi
11:00 pm
Sun, Apr 23
72 °FClear.8 mph83%30.00 "Hg10 mi
10:00 pm72 °FClear.5 mph88%30.01 "Hg10 mi
9:00 pm72 °FPassing clouds.5 mph88%30.00 "HgN/A
8:00 pm73 °FPassing clouds.2 mph89%29.98 "HgN/A
7:00 pm72 °FPassing clouds.No wind88%29.98 "HgN/A
6:00 pm72 °FPassing clouds.6 mph88%29.95 "HgN/A
5:00 pm72 °FRain. Partly sunny.5 mph88%29.94 "HgN/A
4:00 pm75 °FThunderstorms. Broken clouds.6 mph83%29.91 "HgN/A
3:00 pm79 °FThunderstorms. Broken clouds.10 mph70%29.91 "HgN/A
2:00 pm84 °FScattered clouds.12 mph62%29.91 "HgN/A
1:00 pm86 °FScattered clouds.12 mph59%29.93 "HgN/A
12:00 pm84 °FPassing clouds.10 mph62%29.96 "HgN/A
11:00 am82 °FPassing clouds.10 mph66%29.99 "HgN/A
9:00 am81 °FSunny.6 mph66%30.01 "Hg10 mi
8:00 am77 °FSunny.2 mph69%30.01 "Hg10 mi
7:00 am73 °FClear.3 mph78%30.00 "HgN/A
6:00 am70 °FFog.3 mph88%29.97 "Hg3 mi
5:17 am68 °FFog.5 mph94%29.96 "Hg3 mi
5:00 am70 °FFog.3 mph88%29.96 "HgN/A
4:00 am70 °FPartly cloudy.3 mph94%29.94 "HgN/A
3:00 am72 °FFog.3 mph100%29.93 "Hg3 mi
Weather by CustomWeather, © 2017

See weather overviewHow to use our weather pages